2022-056D (52719 NORAD) Tracking and Keplerian Element Data

This shows tracking and keplerian element data for the satellite.

Feedback or suggestion? Click here.




ElementValue
Catalog52719
Name2022-056D
Epoch Orbit8
Epoch Day140.93902433
Epoch Year2022
RAAN320.0477
Inclination85.9545
Eccentricity0.0447529
Argument of Perigee298.2313
Mean Anonmoly57.4739
Mean Motion15.57770459
Decay Rate0.38840689
L11 52719U 22056D 22140.93902433 .38840689 14725-5 38385-3 0 9991
L22 52719 85.9545 320.0477 0447529 298.2313 57.4739 15.57770459 87

Live tracking and technical data element details for 2022-056D (NORAD 52719). 2022-056D can be tracked NOW for your location showing map with azimuth and elevation plus other details from your city location.

Track the satellite on the map from your city or location and see movement details for azimuth, elevation, latitude, longitude, range, height, and movement on the map or in text.







IsCatalogInMostPopularTable: catalog: 52719, numindb: 8
Update: records affected: 1



GetName: 52719 2022-056D

Hit Count: updated at: Sun, 14 Aug 2022 00:09:18 GMT